Regional Weather Roundup
Issued by NWS

Home | Current Version | Previous Version | Graphics & Text | Print | Product List | Glossary On
Versions: 1 2 3 4 5 6 7 8 9 10 11 12 13 14 15 16 17 18 19 20 21 22 23 24 25 26 27 28 29 30 31 32 33 34 35 36 37 38 39 40 41 42 43 44 45 46 47 48 49 50
000
ASUS45 KABQ 031901
RWRNM
NEW MEXICO REGIONAL WEATHER ROUNDUP
NATIONAL WEATHER SERVICE ALBUQUERQUE NM
100 PM MDT TUE MAY 03 2016

NOTE: "FAIR" MEANS FEW OR NO CLOUDS BELOW 12,000 FEET AGL WITH NO
       SIGNIFICANT WEATHER OR OBSTRUCTIONS TO VISION.

      THIS PRODUCT IS RELEASED AS TWO VERSIONS.  ONE VERSION NEAR
      THE TOP OF THE HOUR CONTAINING PRELIMINARY DATA FROM ALBUQUERQUE
      AND OTHER STATIONS.  A FINAL VERSION WITH ADDITIONAL DATA IS
      ISSUED ABOUT 10 MINUTES AFTER THE HOUR.

NMZ501-503-504-510>518-032000-
NORTHWEST PLATEAU/NORTHCENTRAL MOUNTAINS

CITY           SKY/WX    TMP DP  RH WIND       PRES   REMARKS
FARMINGTON     FAIR      62  34  35 VRB3      30.21F
SANTA FE       FAIR      66  26  22 NE9G21    30.20F
TAOS           FAIR      57  28  33 N9G20     30.26S

$$
NMZ402-403-502-505>509-032000-
WESTCENTRAL MOUNTAINS/SOUTHWEST MOUNTAINS

CITY           SKY/WX    TMP DP  RH WIND       PRES   REMARKS
GALLUP         FAIR      62  33  33 NE9       30.24F
GRANTS         FAIR      60  30  32 SW5       30.26S
SILVER CITY      N/A     70  28  21 NE6G16    30.17F

$$
NMZ407-409-411-412-032000-
SOUTHERN DESERTS

CITY           SKY/WX    TMP DP  RH WIND       PRES   REMARKS
LORDSBURG      FAIR      77  32  19 E7G23     30.09F
DEMING         FAIR      77  33  20 MISG      30.11F
HOLLOMAN AFB   FAIR      73  30  20 VRB6      30.11F
ALAMOGORDO     FAIR      73  28  19 N6        30.13F
T OR C         FAIR      71  27  19 E9        30.14F

$$
NMZ519>523-032000-
CENTRAL VALLEYS/CENTRAL HIGHLANDS

CITY           SKY/WX    TMP DP  RH WIND       PRES   REMARKS
ALBUQUERQUE    FAIR      67  30  25 W8        30.20F
DOUBLE EAGLE   MOSUNNY   63  30  29 VRB7      30.23
CLINES CORNERS CLOUDY    55  30  38 E18G24    30.23R
BELEN          FAIR      68  32  26 N6        30.19F
SOCORRO        NOT AVBL

$$
NMZ524>526-539-540-032000-
SOUTHCENTRAL MOUNTAINS

CITY           SKY/WX    TMP DP  RH WIND       PRES   REMARKS
RUIDOSO        NOT AVBL

$$
NMZ527>531-032000-
NORTHEAST HIGHLANDS/NORTHEAST PLAINS

CITY           SKY/WX    TMP DP  RH WIND       PRES   REMARKS
LAS VEGAS      FAIR      57  30  35 E8        30.25S
RATON          FAIR      60  24  25 N18G30    30.23S
CLAYTON        FAIR      66  29  24 NW21G30   30.16F

$$
NMZ532>537-032000-
EASTCENTRAL PLAINS

CITY           SKY/WX    TMP DP  RH WIND       PRES   REMARKS
TUCUMCARI      FAIR      70  31  23 NE14G23   30.14F
CANNON AFB     FAIR      68  37  32 N13G21    30.13S
CLOVIS AIRPORT FAIR      68  39  34 NE18G26   30.15S

$$
NMZ028-029-538-032000-
SOUTHEAST PLAINS

CITY           SKY/WX    TMP DP  RH WIND       PRES   REMARKS
ROSWELL        FAIR      75  32  20 E6        30.09F
ARTESIA        FAIR      75  32  20 CALM      30.09F
CARLSBAD       FAIR      76  34  21 VRB6      30.06F
HOBBS          MOSUNNY   73  32  21 SW5       30.10F


$$




USA.gov is the U.S. government's official web portal to all federal, state and local government web resources and services.